Weather Roundup
Issued by NWS Corpus Christi, TX

Home | Current Version | Previous Version | Text Only | Print | Product List | Glossary On
Versions: 1 2 3 4 5 6 7 8 9 10 11 12 13 14 15 16 17 18 19 20 21 22 23 24 25 26 27 28 29 30 31 32 33 34 35 36 37 38 39 40 41 42 43 44 45 46 47 48 49 50
000
ASUS44 KCRP 192110
HRRCRP

SOUTH TEXAS REGIONAL WEATHER ROUNDUP
NATIONAL WEATHER SERVICE CORPUS CHRISTI TX
400 PM CDT SUN APR 19 2015


TXZ229>244-192200-
...CORPUS CHRISTI AREA OBSERVATIONS...

CITY           SKY/WX    TMP DP  RH WIND       PRES   REMARKS
CORPUS CHRISTI CLOUDY    81  73  76 S6        29.76F
NAS CORPUS CHR CLOUDY    78  71  79 SE12      29.77F
ROCKPORT       PTSUNNY   79  72  79 S10       29.76F
KINGSVILLE NAS CLOUDY    83  76  79 E5        29.76F HX  91
ALICE          CLOUDY    85  71  63 W6        29.76F HAZE    HX  90
FALFURRIAS     CLOUDY    84  70  63 CALM      29.76F
$$

...VICTORIA AREA OBSERVATIONS...

CITY           SKY/WX    TMP DP  RH WIND       PRES   REMARKS
VICTORIA       MOSUNNY   83  72  69 S9        29.75F
BEEVILLE       PTSUNNY   82  72  72 SW5       29.77F
PLEASANTON     SUNNY     85  66  53 W6        29.77F
SAN ANTONIO    MOSUNNY   88  57  34 SW7       29.76F
$$

...LAREDO AREA OBSERVATIONS...

CITY           SKY/WX    TMP DP  RH WIND       PRES   REMARKS
LAREDO         PTSUNNY   84  67  56 E7        29.80F
COTULLA        PTSUNNY   84  67  56 VRB5      29.78F
DEL RIO        SUNNY     89  37  16 NW13G21   29.78F
MCALLEN        MOSUNNY   90  71  53 SE6       29.74F HX  96
HEBBRONVILLE     N/A     80  69  68 CALM      29.80F
$$

...OTHER TEXAS OBSERVATIONS...

CITY           SKY/WX    TMP DP  RH WIND       PRES   REMARKS
BROWNSVILLE    PTSUNNY   85  75  72 SE10      29.75F HX  93
HOUSTON        MOSUNNY   86  67  52 VRB5      29.72F
COL. STATION   PTSUNNY   81  69  67 W6        29.73S THUNDER
AUSTIN         MOSUNNY   88  50  27 W15G21    29.72F
WACO           SUNNY     80  55  42 W14G24    29.75F
FORT WORTH     MOSUNNY   74  55  51 W18G26    29.74S
WICHITA FALLS  MOSUNNY   74  48  39 NW20G26   29.78F
LUBBOCK        CLOUDY    62  36  37 N25       29.97R
EL PASO        MOSUNNY   80  18  10 W8G20     29.93F
$$

...MARINE OBSERVATIONS...

STATION/POSITION TIME  SKY/WX   TEMP    WIND        PRES    VSBY  WAVE   SWELL
                                AIR SEA DIR/SP/G                  HT/PER HT/PER
                 (UTC)          (F)     (DEG/KT/KT) (MB)    (MI)  (FT/S) (FT/S)
PORT ARANSAS     2100            74 75  140/  8/  9 1008.7F
BUOY 90 E PORT A 2050            76 75  170/ 10/ 12 1008.8F         3/ 8   2/ 8
BUOY 45 SE BAFFI 2050            75 75  150/  8/  8 1008.1F         3/ 6   2/ 6
BUOY 200 E PT IS 2050            79 79  120/  6/  8 1008.6F         3/ 7   3/ 7
BUOY 15 E GALVES 2050            76 73  180/ 16/ 17 1007.3F         2/ 6   2/ 7
$$



USA.gov is the U.S. government's official web portal to all federal, state and local government web resources and services.